Temperature
25 25 24 25 26 26 25 25 25 25 26 25 25 25 25 25 25 25 24 24 23 22 22 22 21 21 20 20 20 19 18 18 18 17 17 16 16 16 16 16 16 16 15 15
25 25 26 26 26 26 25 25 25 25 26 25 25 25 26 25 25 25 24 24 23 23 22 22 21 20 20 20 19 19 19 18 18 17 17 16 16 16 16 16 15 15 15 15
25 26 26 26 26 25 25 25 25 25 26 26 25 24 25 25 25 25 25 24 24 23 22 22 21 21 20 20 19 19 19 18 18 17 17 16 16 16 16 15 15 15 15 15
26 26 26 25 25 25 25 26 25 25 24 24 25 23 24 25 24 24 24 24 24 23 23 22 21 21 20 20 19 19 18 18 17 17 17 16 16 16 16 15 15 15 15 15
25 26 25 25 26 26 25 26 25 25 24 24 25 24 24 25 24 24 24 24 24 23 23 22 21 20 20 19 19 19 18 18 17 17 17 16 16 16 16 15 15 15 15 15
26 26 26 26 26 26 26 25 25 25 24 22 24 24 23 24 24 24 24 24 23 23 22 21 21 20 20 19 19 18 18 18 17 17 16 16 16 16 16 15 15 15 15 15
25 26 26 26 25 25 25 24 22 22 22 22 25 24 23 24 25 25 24 24 23 22 22 21 20 20 19 19 19 18 18 17 17 17 16 16 16 16 16 15 15 15 15 15
24 24 25 26 25 24 25 24 22 21 22 23 24 24 24 25 25 24 24 23 22 22 21 20 20 19 19 18 18 18 17 17 17 16 16 16 16 16 16 15 15 15 15 15
24 24 25 26 26 25 24 24 25 23 23 22 23 24 24 24 24 24 23 23 22 21 21 20 19 19 18 18 18 17 17 17 17 16 16 16 16 16 16 15 15 15 15 15
24 23 24 25 25 25 25 24 24 23 22 21 22 23 22 22 23 23 23 22 21 21 20 20 19 18 18 18 17 17 17 17 16 16 16 16 16 16 16 16 15 15 15 15
24 23 24 24 24 24 24 24 23 23 23 21 21 21 23 22 22 22 22 22 21 20 20 19 19 18 18 17 17 17 17 16 16 16 16 16 16 16 16 15 15 15 15 15
23 23 23 24 25 25 24 24 23 21 22 22 21 21 23 23 22 22 22 21 21 20 20 19 18 18 18 17 17 16 16 16 16 16 16 16 15 15 15 15 15 15 15 15
22 22 21 22 23 24 23 23 23 23 22 21 21 21 23 22 22 21 21 21 20 20 19 19 18 17 17 17 17 16 16 16 16 16 16 15 15 15 15 15 15 15 14 14
21 21 21 21 22 22 22 23 23 22 21 21 21 21 21 21 21 20 20 20 20 19 19 18 18 17 17 17 16 16 16 16 16 16 15 15 15 15 15 15 15 14 14 14
22 21 22 22 23 23 22 22 22 22 22 21 21 21 21 20 20 20 19 19 19 18 18 18 17 17 17 16 16 16 16 16 15 15 15 15 15 15 15 15 14 14 14 14
21 21 21 21 22 22 22 22 22 22 22 21 21 20 20 20 19 19 19 18 18 18 17 17 17 17 16 16 16 16 16 15 15 15 15 15 15 14 14 14 14 14 14 14
20 20 20 20 21 21 20 21 21 21 21 20 20 19 19 19 18 18 18 17 17 16 16 16 16 16 16 16 16 15 15 15 15 15 15 14 14 14 14 14 14 14 13 13
20 20 19 19 19 19 20 21 21 20 20 20 20 19 19 18 18 17 17 17 16 16 16 16 16 16 16 16 15 15 15 15 15 15 14 14 14 14 14 14 14 13 13 13
20 19 19 19 18 19 20 20 20 19 19 19 19 18 18 18 18 17 16 16 16 15 15 15 15 15 15 15 15 15 15 15 14 14 14 14 14 14 14 13 13 13 13 13
20 19 18 18 18 18 19 19 19 19 18 18 18 18 17 17 16 16 16 15 15 15 15 14 15 15 14 15 14 14 14 14 14 14 14 14 13 13 13 13 13 13 13 13
18 18 18 17 18 18 18 18 19 17 17 17 17 17 17 16 16 16 15 15 14 14 14 14 14 14 14 14 14 14 14 13 13 13 13 13 13 13 13 13 13 12 12 12
18 18 18 18 17 17 18 18 17 17 16 16 16 16 15 15 15 15 15 14 14 14 14 14 14 14 13 13 13 13 13 13 13 13 13 13 13 13 12 12 12 12 12 12
18 18 18 18 17 17 17 17 16 16 16 15 15 15 14 14 14 14 14 14 14 13 13 13 13 13 13 13 13 13 13 13 13 13 13 13 12 12 12 12 12 12 11 11
18 18 18 17 17 17 17 16 15 15 15 14 14 14 14 13 14 14 14 13 13 13 13 12 12 12 12 12 12 12 12 12 12 12 12 12 12 12 12 11 11 11 11 11
17 17 17 17 17 17 16 15 15 14 14 14 13 13 13 13 13 13 13 13 13 12 12 12 12 12 12 12 12 12 12 12 12 12 12 12 11 11 11 11 11 11 11 11
17 16 16 15 16 16 15 15 14 14 13 13 13 13 13 13 12 12 13 12 12 12 12 11 11 11 11 11 11 11 11 11 11 11 11 11 11 11 11 11 11 10 10 10
Wind_Speed
9 8 7 6 6 7 6 6 6 3 2 3 5 6 5 7 6 6 7 7 9 9 8 8 7 7 6 5 5 7 7 5 5 4 3 3 3 2 2 2 4 4 3 5
7 8 7 5 5 7 8 8 6 3 3 3 5 6 5 7 7 7 7 7 8 8 9 8 8 7 7 6 5 6 6 5 6 4 3 3 3 2 3 2 3 3 3 4
9 4 2 5 7 8 9 7 6 5 4 7 7 6 6 7 7 6 6 6 7 8 9 9 8 7 7 6 6 5 6 6 6 5 3 3 3 2 3 2 2 1 3 3
6 5 4 6 7 8 7 4 6 7 7 6 6 4 4 7 7 6 5 5 5 7 8 8 7 7 6 5 5 5 5 6 6 6 4 4 4 3 3 3 3 2 3 3
6 5 6 7 6 6 7 6 8 9 8 9 9 6 3 6 6 7 6 6 5 6 7 8 7 6 6 6 5 4 4 5 5 5 5 3 3 3 3 3 5 3 3 3
8 6 6 6 5 5 6 8 9 9 7 9 9 6 2 2 3 5 6 6 6 6 7 7 7 6 5 5 5 4 4 5 5 5 5 5 4 4 3 4 4 3 3 2
9 9 6 4 6 6 7 7 4 4 5 6 5 3 2 3 3 3 4 5 6 6 6 6 6 7 6 6 6 5 5 5 5 5 5 5 4 4 4 4 4 4 3 2
7 7 6 5 6 6 6 8 5 4 4 4 3 2 4 6 5 5 4 4 5 5 5 6 5 5 6 6 6 6 5 5 5 4 4 4 4 3 3 4 4 4 3 3
6 3 2 3 4 7 7 7 6 6 8 7 3 2 4 5 5 5 4 4 4 5 4 6 6 5 5 5 5 4 5 5 5 4 3 3 4 3 3 4 4 3 3 3
7 7 4 3 4 7 8 7 5 4 4 5 5 3 2 3 4 4 3 2 3 4 4 4 5 5 5 5 5 4 3 3 4 4 3 2 3 4 4 3 4 4 3 3
8 8 5 5 6 7 6 6 6 5 5 4 4 2 3 4 4 2 2 2 3 4 4 4 5 5 5 5 4 4 4 3 2 3 2 2 2 2 3 3 4 4 4 4
5 6 8 7 5 5 6 7 6 5 5 4 4 2 3 5 4 3 2 2 2 4 4 5 5 5 5 5 5 4 4 3 3 3 2 2 2 2 2 3 3 3 3 3
4 5 7 5 3 3 5 6 7 7 6 6 5 1 2 3 3 2 2 2 3 3 4 4 5 5 4 4 4 4 3 3 3 2 2 2 3 3 2 2 2 3 3 3
4 7 9 9 7 5 7 8 7 7 6 8 7 4 1 2 3 3 3 3 4 3 1 4 4 4 3 3 4 4 3 3 3 2 2 3 3 2 2 2 2 2 2 2
4 8 11 12 11 9 9 10 9 10 10 9 7 5 3 3 3 3 3 4 4 3 1 2 3 3 3 3 3 2 2 2 3 3 3 3 3 2 2 3 2 2 2 3
6 8 11 12 12 12 12 10 11 10 10 10 8 5 3 3 3 4 4 4 4 3 3 2 1 2 2 3 3 2 2 2 2 3 3 2 3 3 2 2 3 2 3 3
6 9 10 11 11 11 11 8 7 6 5 6 5 2 3 3 4 4 4 5 5 5 4 4 3 1 1 1 2 2 2 2 2 2 1 1 1 2 2 2 2 3 3 3
9 9 7 9 9 11 3 3 2 1 1 3 2 3 3 2 1 2 4 5 5 4 4 4 3 3 2 1 0 0 2 2 1 1 1 1 1 1 1 2 3 4 3 3
8 8 6 6 9 9 5 1 1 3 2 1 2 3 4 3 1 2 4 5 4 4 3 3 3 3 3 2 1 0 1 1 1 1 1 1 1 1 2 3 3 3 3 3
7 8 7 7 8 7 1 3 4 2 2 2 3 3 2 3 2 2 4 5 5 5 4 4 3 3 2 2 2 0 1 1 1 1 2 2 2 2 2 3 3 2 3 3
6 7 9 10 10 4 1 2 1 2 2 4 4 3 3 2 2 3 4 4 4 4 4 4 3 3 3 3 2 1 1 1 1 1 2 2 2 2 2 2 1 2 2 2
5 5 7 7 8 3 2 1 1 3 4 4 4 4 4 4 3 3 4 4 4 4 4 4 3 3 3 3 2 2 2 2 1 2 2 2 2 2 2 2 2 2 2 3
4 3 2 2 1 3 3 3 4 4 3 3 4 4 5 5 5 3 3 3 3 4 4 4 4 3 3 3 3 3 3 2 2 2 2 2 2 2 2 3 3 2 3 3
3 2 4 5 2 1 2 3 3 3 3 4 4 4 4 5 5 5 3 3 2 3 4 3 3 3 4 4 4 4 3 2 2 2 2 2 2 2 2 2 2 2 3 3
4 3 5 7 4 2 0 2 2 3 3 4 5 5 5 5 5 5 4 3 2 2 3 3 3 3 4 4 4 4 5 3 2 3 3 2 2 2 2 2 2 2 2 3
7 6 6 6 4 4 2 2 2 2 3 4 4 5 5 5 6 6 5 3 2 2 2 3 3 3 4 4 4 4 4 4 3 3 3 2 2 2 2 2 1 0 1 2
Wind_Direction
218 230 239 243 244 262 282 287 285 269 209 216 245 251 205 188 187 189 181 181 175 176 173 163 156 146 144 143 140 134 141 148 130 123 120 120 117 113 100 97 89 80 76 96
227 230 243 265 280 277 275 273 273 262 222 252 262 260 219 182 185 189 190 186 181 174 168 160 159 155 158 155 151 147 147 149 136 135 137 139 132 134 121 109 104 109 91 89
240 244 239 258 261 264 266 266 283 300 287 255 257 256 223 181 181 180 193 191 181 173 168 160 163 159 157 157 157 156 155 148 138 141 132 124 111 131 119 120 118 130 105 95
248 250 260 260 258 270 274 284 285 279 276 269 249 268 224 169 171 182 184 191 185 169 159 154 155 153 157 155 155 157 157 148 141 139 143 147 158 168 157 150 153 160 125 116
249 243 256 264 268 276 285 290 279 274 272 274 256 249 214 160 178 180 177 186 179 161 153 148 149 149 156 151 148 147 143 139 141 141 149 168 170 162 152 144 152 160 155 156
254 248 254 272 285 277 282 276 270 257 254 261 253 244 200 172 164 160 166 166 158 151 147 146 144 141 145 140 144 147 148 143 140 147 162 183 178 164 157 154 154 161 162 169
238 230 225 240 260 240 248 268 274 247 226 244 248 228 161 126 96 102 130 140 147 147 143 142 144 148 145 145 149 153 153 151 156 174 186 186 178 179 181 172 173 175 172 174
258 232 206 214 250 268 256 261 270 286 290 301 265 216 121 111 103 88 91 105 125 132 136 139 143 143 144 149 154 159 161 163 166 186 196 186 171 176 182 182 178 180 183 180
292 267 178 221 249 264 273 272 279 284 284 280 250 155 136 122 114 102 101 107 131 141 136 140 147 146 145 146 148 157 160 162 167 192 204 191 174 181 182 188 187 179 184 182
296 296 236 218 248 244 264 289 290 272 288 287 281 244 162 134 110 101 115 126 128 140 141 137 142 146 147 147 149 153 157 171 174 188 206 189 185 187 183 189 191 188 186 178
285 281 259 216 231 252 247 256 269 283 276 277 288 341 62 99 87 92 93 93 131 140 141 138 135 145 142 136 143 158 163 158 170 194 200 171 202 194 174 199 192 178 184 185
278 284 278 256 233 241 271 270 271 270 281 280 276 276 70 79 69 61 45 78 85 120 130 130 137 143 141 146 161 173 176 171 174 186 194 185 187 190 195 200 196 180 183 186
316 280 281 266 230 208 262 274 284 284 280 278 273 230 100 92 88 57 57 54 78 97 127 134 134 141 149 155 167 172 178 174 165 166 179 188 190 190 199 203 189 179 179 190
307 271 273 277 295 292 271 266 273 281 278 278 283 272 238 38 39 27 37 35 48 49 82 136 135 140 149 166 176 174 181 177 165 171 199 204 197 198 197 199 194 182 180 186
264 268 274 281 290 293 288 280 270 266 273 279 289 294 335 37 26 1 42 42 44 23 26 97 121 144 160 172 173 171 179 181 173 181 210 218 204 202 209 193 185 181 190 210
262 272 281 280 279 282 283 275 272 268 273 280 280 281 3 36 28 24 34 36 28 24 48 57 106 140 177 178 175 186 187 192 187 198 220 217 209 204 203 188 180 185 199 211
261 269 278 279 285 284 266 266 264 265 283 286 285 311 40 34 13 19 22 25 37 22 17 19 7 334 205 203 201 192 191 183 195 193 202 209 221 213 195 196 194 191 196 202
265 273 275 275 278 266 266 31 7 281 296 340 351 43 41 354 340 42 40 31 23 16 12 1 352 350 339 311 67 168 190 182 185 168 197 224 220 214 196 193 203 203 204 200
246 260 268 268 270 266 256 296 306 272 268 23 354 18 13 338 294 60 41 31 17 6 0 352 349 347 342 347 7 169 236 194 162 162 226 235 213 205 210 210 208 209 211 211
235 246 250 261 267 272 325 45 359 286 241 56 44 23 351 334 307 351 14 15 18 14 5 1 357 353 354 346 357 21 261 268 228 213 219 223 206 200 214 219 214 217 211 207
221 237 241 253 259 264 62 53 345 289 29 37 30 16 13 355 360 358 11 15 22 8 3 2 3 2 350 345 344 297 276 264 265 254 236 217 195 192 204 200 207 210 200 191
241 242 241 247 254 246 96 52 20 47 44 23 17 11 6 9 10 17 12 10 10 4 360 360 359 358 344 336 339 311 283 266 251 237 220 210 203 201 205 185 207 207 196 197
240 265 301 292 325 71 60 52 44 36 21 4 2 7 357 350 347 346 352 353 359 353 345 350 350 344 339 339 329 306 301 286 254 246 226 217 214 206 199 190 196 204 200 203
259 298 285 282 229 135 87 64 50 27 14 1 352 342 334 325 328 330 335 331 342 341 336 341 338 337 339 336 329 324 313 296 276 257 241 224 221 219 203 190 192 199 203 202
299 290 274 271 274 275 320 31 42 20 2 341 331 323 316 316 317 317 315 313 324 323 328 332 324 326 327 328 332 331 327 317 283 265 254 232 218 211 203 193 198 203 206 202
258 259 259 269 281 287 295 356 353 327 317 316 314 310 307 303 306 310 308 320 330 326 321 316 322 326 323 326 330 326 326 323 309 288 274 266 229 207 200 190 193 260 220 212
Height
1491 1493 1494 1491 1489 1490 1490 1493 1494 1491 1486 1490 1492 1491 1489 1490 1493 1495 1498 1500 1503 1506 1508 1511 1513 1515 1517 1519 1521 1522 1523 1525 1526 1527 1528 1529 1529 1530 1531 1531 1531 1532 1533 1533
1490 1492 1487 1485 1486 1487 1489 1493 1493 1488 1484 1488 1490 1488 1485 1487 1489 1492 1495 1497 1500 1503 1505 1508 1511 1513 1516 1518 1520 1521 1522 1524 1525 1526 1527 1528 1529 1530 1530 1531 1531 1532 1533 1533
1489 1487 1484 1485 1487 1489 1489 1490 1491 1491 1486 1484 1489 1491 1485 1484 1486 1489 1492 1494 1497 1500 1503 1506 1509 1511 1514 1516 1518 1520 1521 1523 1524 1525 1526 1527 1528 1529 1530 1530 1531 1532 1532 1533
1484 1482 1484 1486 1487 1487 1491 1485 1486 1488 1493 1494 1489 1503 1488 1482 1485 1487 1490 1492 1494 1497 1500 1503 1507 1510 1512 1514 1517 1519 1520 1521 1522 1523 1525 1526 1527 1528 1529 1529 1530 1531 1532 1532
1485 1482 1484 1486 1484 1484 1486 1483 1484 1486 1490 1493 1487 1495 1491 1481 1485 1485 1486 1489 1492 1495 1498 1501 1505 1508 1510 1513 1515 1517 1519 1520 1521 1522 1523 1525 1526 1527 1528 1529 1529 1530 1531 1531
1481 1480 1481 1482 1481 1482 1482 1484 1484 1484 1490 1503 1488 1491 1494 1484 1482 1482 1484 1487 1491 1494 1496 1500 1503 1506 1508 1510 1512 1515 1516 1518 1519 1520 1521 1523 1525 1526 1527 1528 1528 1529 1530 1530
1483 1480 1478 1481 1483 1482 1484 1492 1504 1505 1506 1501 1481 1486 1490 1479 1477 1479 1482 1485 1489 1492 1495 1498 1501 1504 1506 1508 1510 1512 1514 1516 1517 1519 1520 1521 1523 1524 1525 1526 1527 1528 1528 1529
1487 1487 1478 1479 1482 1485 1483 1488 1504 1514 1508 1497 1483 1487 1484 1475 1477 1480 1482 1485 1488 1491 1494 1496 1499 1502 1504 1506 1508 1510 1512 1514 1515 1517 1519 1520 1521 1522 1523 1524 1525 1526 1527 1527
1487 1486 1476 1476 1478 1481 1485 1484 1482 1494 1496 1501 1489 1483 1479 1476 1478 1480 1483 1486 1488 1490 1493 1495 1497 1500 1502 1504 1506 1508 1510 1512 1513 1515 1517 1518 1519 1520 1521 1522 1523 1524 1525 1525
1484 1489 1479 1477 1478 1479 1480 1482 1486 1494 1505 1508 1496 1487 1489 1483 1481 1482 1484 1486 1487 1489 1492 1494 1495 1497 1500 1502 1504 1506 1508 1510 1511 1513 1514 1516 1517 1518 1519 1520 1521 1522 1522 1523
1484 1489 1483 1480 1482 1483 1482 1484 1485 1489 1491 1505 1510 1500 1479 1481 1481 1482 1483 1485 1487 1488 1490 1492 1494 1496 1498 1500 1502 1504 1506 1507 1509 1511 1512 1513 1514 1515 1516 1517 1518 1519 1520 1521
1484 1487 1488 1480 1474 1475 1478 1481 1485 1498 1496 1492 1502 1501 1478 1479 1481 1483 1484 1485 1486 1487 1489 1491 1493 1495 1497 1499 1500 1502 1504 1505 1507 1508 1509 1511 1512 1513 1514 1514 1515 1516 1517 1518
1488 1491 1496 1491 1485 1479 1481 1480 1481 1484 1490 1494 1500 1499 1480 1481 1483 1484 1485 1485 1486 1487 1488 1490 1492 1493 1495 1497 1499 1500 1502 1503 1504 1505 1507 1508 1509 1510 1511 1512 1513 1514 1514 1515
1491 1491 1496 1501 1492 1485 1484 1482 1482 1486 1494 1494 1491 1491 1485 1483 1484 1486 1485 1485 1486 1487 1488 1489 1491 1492 1494 1496 1497 1498 1499 1501 1502 1503 1504 1505 1506 1507 1508 1509 1510 1511 1511 1512
1489 1492 1488 1484 1480 1480 1481 1481 1481 1485 1486 1490 1488 1488 1486 1485 1486 1487 1486 1486 1486 1487 1487 1489 1490 1491 1493 1494 1495 1496 1497 1498 1499 1501 1502 1503 1503 1504 1505 1506 1507 1507 1508 1509
1487 1490 1488 1486 1480 1479 1481 1480 1480 1480 1482 1483 1484 1486 1485 1486 1486 1487 1487 1487 1487 1487 1487 1488 1489 1490 1492 1492 1493 1494 1494 1496 1497 1498 1499 1500 1500 1501 1502 1502 1503 1504 1505 1505
1488 1489 1492 1491 1483 1482 1485 1479 1479 1480 1480 1482 1486 1487 1485 1486 1487 1487 1488 1487 1487 1488 1487 1488 1488 1489 1490 1491 1491 1492 1492 1493 1494 1495 1496 1496 1497 1498 1498 1499 1500 1500 1501 1502
1488 1489 1489 1490 1490 1497 1483 1474 1475 1479 1480 1481 1481 1483 1485 1486 1487 1488 1488 1488 1488 1488 1487 1487 1487 1488 1488 1489 1489 1490 1490 1491 1491 1492 1493 1493 1494 1494 1495 1495 1496 1497 1497 1498
1485 1488 1491 1491 1493 1486 1478 1476 1477 1480 1482 1481 1482 1483 1485 1485 1485 1487 1488 1488 1488 1487 1487 1486 1486 1486 1486 1486 1487 1487 1488 1489 1489 1489 1489 1490 1491 1491 1491 1492 1492 1493 1494 1494
1483 1484 1490 1491 1495 1493 1482 1477 1476 1479 1485 1482 1482 1484 1485 1485 1487 1488 1487 1487 1486 1486 1485 1485 1484 1484 1484 1484 1485 1485 1485 1486 1486 1486 1486 1487 1488 1488 1488 1488 1489 1490 1490 1491
1485 1486 1489 1490 1490 1483 1479 1478 1478 1488 1489 1484 1484 1485 1485 1486 1488 1488 1486 1486 1486 1485 1484 1483 1483 1483 1483 1483 1483 1483 1483 1483 1483 1484 1484 1484 1484 1484 1484 1485 1485 1486 1487 1487
1481 1484 1484 1484 1488 1488 1480 1480 1483 1486 1485 1485 1485 1486 1486 1486 1486 1486 1486 1485 1485 1484 1483 1483 1482 1481 1481 1481 1481 1481 1481 1481 1481 1481 1481 1481 1481 1481 1481 1481 1482 1482 1483 1483
1477 1479 1480 1481 1484 1481 1481 1482 1484 1484 1485 1486 1486 1486 1486 1486 1486 1485 1485 1484 1484 1483 1482 1482 1481 1480 1480 1480 1479 1479 1478 1478 1478 1478 1477 1478 1478 1478 1478 1478 1478 1479 1479 1479
1474 1476 1478 1479 1478 1480 1481 1482 1484 1485 1485 1486 1486 1486 1486 1485 1484 1484 1483 1483 1482 1482 1481 1480 1480 1479 1478 1478 1477 1477 1476 1476 1475 1475 1474 1474 1474 1474 1475 1475 1475 1475 1475 1475
1477 1477 1478 1478 1478 1479 1480 1482 1483 1484 1484 1485 1485 1485 1484 1484 1483 1482 1481 1481 1480 1480 1479 1479 1478 1477 1476 1476 1475 1474 1473 1473 1472 1472 1471 1471 1471 1471 1471 1471 1471 1471 1471 1472
1476 1477 1479 1478 1478 1479 1479 1481 1482 1483 1483 1483 1483 1483 1482 1482 1481 1480 1479 1478 1477 1477 1477 1476 1476 1475 1474 1473 1472 1471 1470 1470 1469 1468 1468 1468 1467 1467 1467 1467 1467 1467 1468 1468